Track ONEWEB-0363 now! 10-day predictions ONEWEB-0363 is classified as:
1 49289U 21090L 22141.91667824 -.00026951 00000-0 -27108-2 0 9992 2 49289 87.2118 215.7869 0003287 134.4671 258.4640 14.91489102 1307